PGT1548 LTAC-LTCJ

Flight info

Callsign PGT1548
Flight time N/A
Altitude 35000
Route GOBIT UG8 MARTI UL614 EZS UW104 ZUITA
Aircraft A20N/M-SDE2E3FGHIRWXY/LB1

Departure

Time 2026-04-28 19:44
Airport Esenboğa International Airport (LTAC)

Arrival

Time N/A
Airport Batman Airport (LTCJ)
Time Latitude Longitude Altitude Speed Heading
2026-04-28 18:50 40.11524 32.98988 3128 ft 0 kts 137°
2026-04-28 19:33 40.11530 32.98981 3127 ft 2 kts 130°
2026-04-28 19:34 40.11538 32.98965 3127 ft 2 kts 115°
2026-04-28 19:34 40.11543 32.98946 3126 ft 2 kts 102°
2026-04-28 19:34 40.11544 32.98927 3126 ft 2 kts 88°
2026-04-28 19:34 40.11543 32.98908 3126 ft 2 kts 75°
2026-04-28 19:35 40.11538 32.98890 3125 ft 2 kts 61°
2026-04-28 19:35 40.11529 32.98873 3125 ft 2 kts 47°
2026-04-28 19:35 40.11517 32.98860 3125 ft 2 kts 34°
2026-04-28 19:35 40.11506 32.98850 3125 ft 0 kts 37°
2026-04-28 19:36 40.11506 32.98849 3125 ft 0 kts 38°
2026-04-28 19:36 40.11506 32.98850 3124 ft 0 kts 38°
2026-04-28 19:39 40.11509 32.98853 3125 ft 1 kts 39°
2026-04-28 19:39 40.11520 32.98864 3125 ft 1 kts 38°
2026-04-28 19:40 40.11538 32.98885 3125 ft 5 kts 42°
2026-04-28 19:40 40.11565 32.98918 3126 ft 5 kts 45°
2026-04-28 19:40 40.11590 32.98951 3127 ft 3 kts 45°
2026-04-28 19:40 40.11613 32.98957 3127 ft 4 kts 338°
2026-04-28 19:41 40.11640 32.98920 3126 ft 7 kts 305°
2026-04-28 19:41 40.11674 32.98859 3125 ft 9 kts 307°
2026-04-28 19:41 40.11717 32.98784 3123 ft 11 kts 307°
2026-04-28 19:41 40.11768 32.98696 3122 ft 13 kts 307°
2026-04-28 19:42 40.11821 32.98603 3120 ft 9 kts 306°
2026-04-28 19:42 40.11865 32.98525 3119 ft 8 kts 307°
2026-04-28 19:42 40.11894 32.98488 3118 ft 5 kts 346°
2026-04-28 19:42 40.11917 32.98498 3118 ft 5 kts 37°
2026-04-28 19:43 40.11985 32.98564 3119 ft 28 kts 36°
2026-04-28 19:43 40.12346 32.98908 3123 ft 98 kts 36°
2026-04-28 19:43 40.13065 32.99591 3127 ft 155 kts 37°
2026-04-28 19:43 40.14047 33.00538 3317 ft 185 kts 37°
2026-04-28 19:44 40.15017 33.01575 4053 ft 181 kts 39°
2026-04-28 19:44 40.15954 33.02600 4845 ft 178 kts 39°
2026-04-28 19:44 40.16900 33.03621 5481 ft 178 kts 38°
2026-04-28 19:44 40.17864 33.04641 6078 ft 179 kts 38°
2026-04-28 19:45 40.18853 33.05679 6590 ft 188 kts 38°
2026-04-28 19:45 40.19922 33.06807 6955 ft 208 kts 43°
2026-04-28 19:45 40.20745 33.08443 7357 ft 227 kts 73°
2026-04-28 19:45 40.20806 33.10550 7769 ft 247 kts 105°
2026-04-28 19:46 40.19975 33.12573 8217 ft 264 kts 129°
2026-04-28 19:46 40.18767 33.14478 8696 ft 282 kts 129°
2026-04-28 19:46 40.17514 33.16490 9330 ft 293 kts 129°
2026-04-28 19:46 40.16233 33.18579 10134 ft 297 kts 129°
2026-04-28 19:47 40.14933 33.20715 10758 ft 308 kts 129°
2026-04-28 19:47 40.13572 33.22958 11186 ft 326 kts 129°
2026-04-28 19:47 40.12114 33.25370 11674 ft 341 kts 128°
2026-04-28 19:47 40.10652 33.27789 12367 ft 346 kts 128°
2026-04-28 19:48 40.09156 33.30263 12831 ft 349 kts 128°
2026-04-28 19:48 40.07635 33.32776 13301 ft 356 kts 128°
2026-04-28 19:48 40.06102 33.35309 14135 ft 358 kts 128°
2026-04-28 19:48 40.04557 33.37856 14935 ft 360 kts 128°
2026-04-28 19:49 40.03000 33.40423 15661 ft 364 kts 128°
2026-04-28 19:49 40.01457 33.43042 16370 ft 368 kts 126°
2026-04-28 19:49 39.99992 33.45810 17073 ft 372 kts 124°
2026-04-28 19:49 39.98535 33.48619 17757 ft 376 kts 124°
2026-04-28 19:50 39.95609 33.54265 19071 ft 383 kts 124°
2026-04-28 19:50 39.94094 33.57178 19705 ft 387 kts 123°
2026-04-28 19:50 39.92577 33.60092 20319 ft 391 kts 123°
2026-04-28 19:51 39.91059 33.63004 20925 ft 395 kts 123°
2026-04-28 19:51 39.89507 33.65981 21521 ft 399 kts 124°
2026-04-28 19:51 39.87944 33.68975 22110 ft 402 kts 124°
2026-04-28 19:51 39.86366 33.71995 22687 ft 406 kts 124°
2026-04-28 19:52 39.84786 33.75016 23244 ft 409 kts 124°
2026-04-28 19:52 39.83160 33.78117 23796 ft 413 kts 124°
2026-04-28 19:52 39.81555 33.81177 24341 ft 416 kts 124°
2026-04-28 19:52 39.79912 33.84308 24860 ft 420 kts 124°
2026-04-28 19:53 39.78369 33.87504 25361 ft 423 kts 119°
2026-04-28 19:53 39.77028 33.90932 25858 ft 426 kts 114°
2026-04-28 19:53 39.75923 33.94500 26327 ft 429 kts 110°
2026-04-28 19:53 39.74887 33.98160 26784 ft 432 kts 110°
2026-04-28 19:54 39.73861 34.01838 27218 ft 435 kts 110°
2026-04-28 19:54 39.72831 34.05515 27611 ft 439 kts 110°
2026-04-28 19:54 39.71756 34.09335 28024 ft 443 kts 110°
2026-04-28 19:54 39.70697 34.13081 28434 ft 445 kts 110°
2026-04-28 19:55 39.69610 34.16909 28831 ft 448 kts 110°
2026-04-28 19:55 39.68540 34.20665 29210 ft 451 kts 110°
2026-04-28 19:55 39.67436 34.24530 29607 ft 453 kts 110°
2026-04-28 19:55 39.66340 34.28361 30086 ft 453 kts 110°
2026-04-28 19:56 39.65249 34.32171 30615 ft 452 kts 110°
2026-04-28 19:56 39.64154 34.35999 31081 ft 451 kts 110°
2026-04-28 19:56 39.63068 34.39784 31526 ft 450 kts 110°
2026-04-28 19:56 39.61977 34.43576 31950 ft 449 kts 111°
2026-04-28 19:57 39.60891 34.47346 32384 ft 448 kts 111°
2026-04-28 19:57 39.59791 34.51157 32808 ft 447 kts 111°
2026-04-28 19:57 39.58704 34.54924 33194 ft 446 kts 111°
2026-04-28 19:57 39.57618 34.58673 33449 ft 447 kts 111°
2026-04-28 19:58 39.56525 34.62445 33702 ft 448 kts 111°
2026-04-28 19:58 39.55434 34.66206 33954 ft 449 kts 112°
2026-04-28 19:58 39.54331 34.70002 34207 ft 449 kts 112°
2026-04-28 19:58 39.53242 34.73747 34461 ft 450 kts 112°
2026-04-28 19:59 39.52126 34.77575 34689 ft 451 kts 112°
2026-04-28 19:59 39.51026 34.81342 34909 ft 452 kts 112°
2026-04-28 19:59 39.49920 34.85125 35034 ft 453 kts 112°
2026-04-28 20:00 39.47681 34.92769 35047 ft 453 kts 112°
2026-04-28 20:00 39.45448 35.00373 35052 ft 454 kts 112°
2026-04-28 20:01 39.43204 35.07991 35058 ft 454 kts 112°
2026-04-28 20:01 39.40948 35.15625 35060 ft 454 kts 112°
2026-04-28 20:02 39.38712 35.23265 35060 ft 454 kts 112°
2026-04-28 20:02 39.36522 35.30856 35059 ft 454 kts 112°
2026-04-28 20:03 39.34311 35.38488 35061 ft 454 kts 112°
2026-04-28 20:03 39.32091 35.46123 35063 ft 454 kts 112°
2026-04-28 20:04 39.29870 35.53736 35067 ft 454 kts 112°
2026-04-28 20:04 39.27644 35.61337 35073 ft 454 kts 112°
2026-04-28 20:05 39.25419 35.68916 35083 ft 453 kts 113°
2026-04-28 20:05 39.23191 35.76481 35092 ft 453 kts 113°
2026-04-28 20:06 39.20948 35.84075 35096 ft 453 kts 112°
2026-04-28 20:06 39.18695 35.91685 35096 ft 453 kts 112°
2026-04-28 20:07 39.16453 35.99232 35089 ft 453 kts 113°
2026-04-28 20:07 39.14148 36.06797 35085 ft 452 kts 114°
2026-04-28 20:08 39.11744 36.14245 35082 ft 451 kts 114°
2026-04-28 20:08 39.09334 36.21684 35094 ft 452 kts 114°
2026-04-28 20:09 39.06916 36.29162 35092 ft 452 kts 114°
2026-04-28 20:09 39.04508 36.36601 35092 ft 452 kts 114°
2026-04-28 20:10 39.02097 36.44032 35091 ft 452 kts 114°
2026-04-28 20:10 38.99673 36.51484 35099 ft 452 kts 114°
2026-04-28 20:11 38.97251 36.58908 35089 ft 451 kts 114°
2026-04-28 20:11 38.94823 36.66332 35090 ft 451 kts 115°
2026-04-28 20:12 38.92383 36.73771 35089 ft 450 kts 115°
2026-04-28 20:12 38.89954 36.81162 35088 ft 451 kts 115°
2026-04-28 20:13 38.87491 36.88633 35082 ft 451 kts 115°
2026-04-28 20:13 38.85049 36.96020 35088 ft 451 kts 115°
2026-04-28 20:14 38.82607 37.03392 35086 ft 451 kts 115°
2026-04-28 20:14 38.80144 37.10802 35091 ft 450 kts 115°
2026-04-28 20:15 38.77697 37.18155 35092 ft 449 kts 115°
2026-04-28 20:15 38.75260 37.25483 35093 ft 449 kts 115°
2026-04-28 20:15 38.74034 37.29160 34938 ft 449 kts 115°
2026-04-28 20:16 38.72809 37.32828 34720 ft 447 kts 115°
2026-04-28 20:16 38.71601 37.36441 34506 ft 445 kts 115°
2026-04-28 20:16 38.70379 37.40091 34270 ft 442 kts 115°
2026-04-28 20:16 38.69171 37.43691 34017 ft 440 kts 115°
2026-04-28 20:17 38.67977 37.47250 33761 ft 439 kts 115°
2026-04-28 20:17 38.66772 37.50832 33504 ft 439 kts 114°
2026-04-28 20:17 38.65561 37.54430 33249 ft 439 kts 114°
2026-04-28 20:17 38.64352 37.58015 32993 ft 440 kts 114°
2026-04-28 20:18 38.63144 37.61599 32743 ft 440 kts 114°
2026-04-28 20:18 38.62331 37.64006 32567 ft 441 kts 114°
2026-04-28 20:18 38.60727 37.68750 32229 ft 441 kts 115°
2026-04-28 20:18 38.59499 37.72377 31909 ft 442 kts 115°
2026-04-28 20:19 38.58283 37.75961 31457 ft 443 kts 115°
2026-04-28 20:19 38.57065 37.79548 30846 ft 444 kts 115°
2026-04-28 20:19 38.55843 37.83140 30148 ft 446 kts 115°
2026-04-28 20:19 38.54598 37.86798 29389 ft 448 kts 114°
2026-04-28 20:20 38.53361 37.90431 28832 ft 444 kts 114°
2026-04-28 20:20 38.52135 37.94027 28361 ft 440 kts 114°
2026-04-28 20:20 38.50932 37.97549 27874 ft 436 kts 114°
2026-04-28 20:20 38.49722 38.01086 27390 ft 432 kts 114°
2026-04-28 20:21 38.48529 38.04567 26910 ft 428 kts 114°
2026-04-28 20:21 38.47295 38.07957 26410 ft 424 kts 121°
2026-04-28 20:21 38.45456 38.10840 25913 ft 417 kts 140°
2026-04-28 20:21 38.43054 38.12824 25431 ft 409 kts 158°
2026-04-28 20:22 38.40401 38.14124 24971 ft 405 kts 162°
2026-04-28 20:22 38.37774 38.15329 24505 ft 402 kts 162°
2026-04-28 20:22 38.35151 38.16535 24043 ft 399 kts 161°
2026-04-28 20:22 38.32553 38.17743 23575 ft 396 kts 161°
2026-04-28 20:23 38.29942 38.18962 23128 ft 393 kts 161°
2026-04-28 20:23 38.27398 38.20157 22682 ft 390 kts 161°
2026-04-28 20:23 38.24870 38.21346 22234 ft 388 kts 161°
2026-04-28 20:23 38.22362 38.22526 21762 ft 386 kts 161°
2026-04-28 20:24 38.19850 38.23709 21298 ft 383 kts 161°
2026-04-28 20:24 38.17342 38.24888 20847 ft 381 kts 160°
2026-04-28 20:24 38.14875 38.26049 20384 ft 379 kts 160°
2026-04-28 20:24 38.12387 38.27217 19916 ft 377 kts 160°
2026-04-28 20:25 38.09964 38.28357 19469 ft 375 kts 160°
2026-04-28 20:25 38.07498 38.29516 18999 ft 374 kts 160°
2026-04-28 20:25 38.05062 38.30659 18532 ft 372 kts 160°
2026-04-28 20:25 38.02646 38.31791 18062 ft 371 kts 160°
2026-04-28 20:26 38.00231 38.32922 17597 ft 369 kts 160°
2026-04-28 20:26 37.97829 38.34046 17135 ft 367 kts 160°
2026-04-28 20:26 37.95444 38.35162 16683 ft 365 kts 159°
2026-04-28 20:26 37.93072 38.36273 16232 ft 363 kts 159°
2026-04-28 20:27 37.90704 38.37383 15773 ft 362 kts 159°
2026-04-28 20:27 37.88366 38.38479 15307 ft 360 kts 159°
2026-04-28 20:27 37.86033 38.39668 14826 ft 359 kts 157°
2026-04-28 20:27 37.83751 38.40857 14373 ft 356 kts 157°
2026-04-28 20:28 37.81443 38.42061 13921 ft 354 kts 157°
2026-04-28 20:28 37.79190 38.43234 13461 ft 352 kts 156°
2026-04-28 20:28 37.76922 38.44415 13029 ft 349 kts 156°
2026-04-28 20:28 37.74703 38.45578 12571 ft 344 kts 154°
2026-04-28 20:29 37.72655 38.47094 12134 ft 341 kts 141°
2026-04-28 20:29 37.70936 38.49145 11702 ft 338 kts 129°
2026-04-28 20:29 37.69447 38.51390 11257 ft 337 kts 127°
2026-04-28 20:29 37.67963 38.53699 10845 ft 336 kts 127°
2026-04-28 20:30 37.66490 38.55978 10445 ft 333 kts 127°
2026-04-28 20:30 37.65060 38.58203 10267 ft 321 kts 125°
2026-04-28 20:30 37.63748 38.60400 10129 ft 309 kts 124°
2026-04-28 20:30 37.62494 38.62520 9972 ft 299 kts 124°
2026-04-28 20:31 37.61201 38.64553 9644 ft 297 kts 135°
2026-04-28 20:31 37.59396 38.65800 9326 ft 297 kts 168°
2026-04-28 20:31 37.57362 38.65825 9036 ft 292 kts 187°
2026-04-28 20:31 37.55352 38.65511 8758 ft 288 kts 187°
2026-04-28 20:32 37.53392 38.65222 8377 ft 281 kts 187°
2026-04-28 20:32 37.51455 38.64958 7939 ft 280 kts 187°
2026-04-28 20:32 37.49531 38.64711 7677 ft 274 kts 186°
2026-04-28 20:32 37.47655 38.64478 7404 ft 270 kts 186°
2026-04-28 20:33 37.45805 38.64252 7098 ft 263 kts 186°
2026-04-28 20:33 37.44008 38.64034 6769 ft 258 kts 186°
2026-04-28 20:33 37.42224 38.63819 6472 ft 253 kts 186°
2026-04-28 20:33 37.40506 38.63628 6156 ft 249 kts 182°
2026-04-28 20:34 37.38830 38.64061 5842 ft 241 kts 150°
2026-04-28 20:34 37.37592 38.65350 5740 ft 222 kts 132°
2026-04-28 20:34 37.36585 38.66769 5700 ft 218 kts 130°
2026-04-28 20:34 37.35578 38.68201 5667 ft 218 kts 131°
2026-04-28 20:35 37.34558 38.69627 5627 ft 218 kts 131°
2026-04-28 20:35 37.33537 38.71037 5593 ft 214 kts 131°
2026-04-28 20:35 37.32557 38.72375 5494 ft 204 kts 132°
2026-04-28 20:35 37.31685 38.73736 5285 ft 200 kts 115°
2026-04-28 20:36 37.31603 38.75366 5089 ft 184 kts 66°
2026-04-28 20:36 37.32407 38.76512 4904 ft 171 kts 36°
2026-04-28 20:36 37.33366 38.77370 4677 ft 168 kts 35°
2026-04-28 20:36 37.34298 38.78258 4448 ft 166 kts 38°
2026-04-28 20:37 37.35194 38.79179 4283 ft 166 kts 38°
2026-04-28 20:37 37.36096 38.80061 4272 ft 166 kts 38°
2026-04-28 20:37 37.36991 38.81003 4309 ft 166 kts 41°
2026-04-28 20:37 37.37844 38.81963 4151 ft 165 kts 42°
2026-04-28 20:38 37.38663 38.82897 3920 ft 150 kts 42°
2026-04-28 20:38 37.39400 38.83734 3712 ft 136 kts 42°
2026-04-28 20:38 37.40099 38.84523 3550 ft 135 kts 42°
2026-04-28 20:38 37.40801 38.85315 3384 ft 134 kts 43°
2026-04-28 20:39 37.41495 38.86108 3225 ft 133 kts 43°
2026-04-28 20:39 37.42191 38.86882 3058 ft 133 kts 42°
2026-04-28 20:39 37.42876 38.87645 2852 ft 133 kts 43°
2026-04-28 20:39 37.43560 38.88432 2707 ft 132 kts 43°
2026-04-28 20:40 37.44205 38.89158 2699 ft 107 kts 43°
2026-04-28 20:40 37.44632 38.89643 2699 ft 56 kts 43°
2026-04-28 20:40 37.44884 38.89927 2696 ft 34 kts 41°
2026-04-28 20:40 37.44932 38.90048 2696 ft 8 kts 153°
2026-04-28 20:41 37.44880 38.90108 2694 ft 11 kts 132°
2026-04-28 20:41 37.44818 38.90195 2691 ft 14 kts 130°
2026-04-28 20:41 37.44757 38.90286 2688 ft 12 kts 130°
2026-04-28 20:41 37.44698 38.90335 2686 ft 11 kts 187°
2026-04-28 20:42 37.44642 38.90283 2686 ft 9 kts 222°
2026-04-28 20:42 37.44604 38.90256 2686 ft 6 kts 171°
2026-04-28 20:42 37.44574 38.90284 2685 ft 5 kts 129°
2026-04-28 20:42 37.44553 38.90316 2684 ft 5 kts 130°
2026-04-28 20:43 37.44537 38.90339 2683 ft 0 kts 131°